www.pogodaiklimat.ru

Погода и климат >> Архив погоды >> Швейцария >> Бишофсцелль


ПОГОДА в Бишофсцелле

  • Прогноз погоды в Бишофсцелле
  • Монитор погоды в Бишофсцелле

АРХИВ ПОГОДЫ в Бишофсцелле

Время (UTC), дата Ветер
(напр.,м/с)
 
Видим.   Явления Облачность Т
(С)
Тd
(С)
f
(%)
Тe
(С)
Тes
(С)
Комфортность P
(гПа)
Po
(гПа)
Тmin
(С)
Tmax
(С)
R
(мм)
R24
(мм)
S
(см)
16 10.07 З 1
{4}
н/о н/о +21.7 +5.7 35 +22 +22 комфорт 1016.6 963.5
17 10.07 В 1
{4}
н/о н/о +21.8 +5.2 34 +22 +22 комфорт 1016.5 963.4
18 10.07 СВ 1
{5}
н/о н/о +21.2 +4.7 34 +22 +22 комфорт 1016.4 963.2 +22.1
19 10.07 З 1
{3}
н/о н/о +17.5 +10.4 63 +19 +19 1017.3 963.3
20 10.07 ЮЗ 1
{2}
н/о н/о +14.5 +12.0 85 +15 +15 1018.4 963.8
21 10.07 З 1
{3}
н/о н/о +13.1 +11.7 91 +14 +14 1018.8 963.9
22 10.07 З 1
{2}
н/о н/о +12.3 +11.4 94 +12 +12 1019.0 963.9
23 10.07 З 1
{2}
н/о н/о +11.6 +10.9 95 +12 +12 1018.7 963.5
00 11.07 штиль 0
{3}
н/о н/о +11.9 +10.8 93 +11 +11 1018.4 963.3
01 11.07 З 1
{2}
н/о н/о +10.8 +10.8 100 +10 +10 1018.1 962.8
02 11.07 СЗ 1
{2}
н/о н/о +10.6 +10.6 100 +11 +11 1017.6 962.3
03 11.07 З 1
{2}
н/о н/о +11.1 +11.0 99 +12 +12 1016.9 961.7
04 11.07 З 1
{2}
н/о н/о +10.6 +10.6 100 +11 +11 1016.8 961.5
05 11.07 ЮЗ 1
{2}
н/о н/о +12.0 +11.1 94 +13 +13 1016.8 961.8
06 11.07 З 1 н/о н/о +13.3 +11.8 91 +13 +13 1016.3 961.6 +10.3
07 11.07 ЮЗ 2
{2}
н/о н/о +15.9 +10.9 72 +16 +16 1015.5 961.3
08 11.07 ЮЗ 1
{2}
н/о н/о +17.3 +12.0 71 +19 +19 1015.7 961.8
09 11.07 ЮВ 1
{3}
н/о н/о +17.9 +12.7 72 +19 +19 1015.4 961.6
10 11.07 СВ 2
{3}
н/о н/о +18.6 +12.6 68 +20 +20 1015.1 961.5
11 11.07 С 2
{4}
н/о н/о +19.6 +12.7 64 +22 +22 комфорт 1014.7 961.3
12 11.07 С 1
{4}
н/о н/о +19.6 +12.3 63 +22 +22 комфорт 1014.8 961.4
13 11.07 В 2
{4}
н/о н/о +19.9 +12.5 62 +22 +22 комфорт 1014.7 961.3
14 11.07 СВ 2
{4}
н/о н/о +19.7 +11.7 60 +22 +22 комфорт 1014.8 961.4
15 11.07 В 1
{4}
н/о н/о +18.4 +14.3 77 +20 +20 1015.6 961.9 0.2
16 11.07 З 1
{2}
н/о н/о +17.8 +15.5 86 +19 +19 1015.2 961.4
17 11.07 ЮЗ 1
{2}
н/о н/о +18.3 +14.2 77 +20 +20 1015.1 961.4 0.1
18 11.07 ЮЗ 1
{4}
н/о н/о +18.0 +15.2 84 +20 +20 1015.4 961.6 +20.0
19 11.07 З 1
{2}
н/о н/о +17.0 +15.8 93 +18 +18 1015.8 961.8
20 11.07 ЮЗ 1
{2}
н/о н/о +15.6 +15.6 100 +16 +16 1016.2 961.9
21 11.07 З 1
{2}
н/о н/о +14.9 +14.9 100 +16 +16 1016.5 962.1
22 11.07 ЮЗ 1
{2}
н/о н/о +14.4 +14.4 100 +15 +15 1016.6 962.1
23 11.07 ЮЗ 1
{2}
н/о н/о +14.2 +14.2 100 +15 +15 1016.6 962.0
00 12.07 З 1
{2}
н/о н/о +13.5 +13.5 100 +14 +14 1016.2 961.5
01 12.07 З 1
{2}
н/о н/о +13.4 +13.4 100 +13 +13 1015.6 960.9
02 12.07 З 1
{2}
н/о н/о +13.5 +13.5 100 +14 +14 1015.4 960.8
03 12.07 З 1
{2}
н/о н/о +13.2 +13.2 100 +13 +13 1015.3 960.6
04 12.07 З 1
{2}
н/о н/о +13.1 +13.1 100 +13 +13 1015.3 960.6
05 12.07 З 1
{2}
н/о н/о +13.7 +13.7 100 +15 +15 1015.4 960.8
06 12.07 ЮЗ 2
{4}
н/о н/о +14.6 +14.6 100 +14 +14 1016.2 961.7 +13.0
07 12.07 З 1
{3}
н/о н/о +14.5 +14.5 100 +15 +15 1016.4 961.9 0.9
08 12.07 З 1
{3}
н/о н/о +14.6 +14.6 100 +15 +15 1016.5 962.0 3
09 12.07 С 2
{4}
н/о н/о +15.3 +15.3 100 +15 +15 1016.5 962.2 0.6
10 12.07 СВ 1
{5}
н/о н/о +15.8 +15.8 100 +16 +16 1016.2 962.0 2
11 12.07 Ю 1
{5}
н/о н/о +16.8 +15.5 92 +18 +18 1015.7 961.7
12 12.07 СВ 2
{5}
н/о н/о +18.5 +15.9 85 +20 +20 1014.7 961.1
13 12.07 СЗ 1
{3}
н/о н/о +21.7 +16.1 70 +25 +25 комфорт 1013.2 960.2
14 12.07 СЗ 1
{4}
н/о н/о +22.1 +14.8 63 +25 +25 комфорт 1012.7 959.8
15 12.07 В 3
{6}
н/о н/о +20.7 +15.0 70 +24 +24 комфорт 1012.3 959.2
16 12.07 СВ 3
{6}
н/о н/о +19.5 +16.0 80 +22 +22 комфорт 1011.8 958.5 1
17 12.07 ЮЗ 2
{7}
н/о н/о +18.1 +18.1 100 +19 +19 1012.3 958.7 8
18 12.07 штиль 0
{7}
н/о н/о +18.4 +18.3 99 +19 +19 1012.3 958.8 +23.3
19 12.07 З 1
{2}
н/о н/о +17.5 +17.5 100 +19 +19 1013.1 959.4
20 12.07 З 1
{2}
н/о н/о +16.8 +16.8 100 +18 +18 1013.6 959.7
21 12.07 З 1
{2}
н/о н/о +16.3 +16.3 100 +18 +18 1014.3 960.3
22 12.07 В 1
{4}
н/о н/о +16.7 +16.7 100 +17 +17 1015.5 961.5
23 12.07 штиль 0
{3}
н/о н/о +16.8 +16.8 100 +17 +17 1015.8 961.8
00 13.07 С 2
{4}
н/о н/о +15.6 +15.6 100 +16 +16 1016.5 962.2 0.8
01 13.07 ЮЗ 2
{3}
н/о н/о +14.6 +14.6 100 +14 +14 1016.4 961.9 3
02 13.07 З 1
{6}
н/о н/о +14.0 +14.0 100 +15 +15 1016.3 961.7 1
03 13.07 ЮЗ 1
{6}
н/о н/о +14.0 +14.0 100 +15 +15 1017.1 962.5
04 13.07 ЮЗ 1
{3}
н/о н/о +13.6 +13.6 100 +14 +14 1017.6 962.9
05 13.07 ЮЗ 1
{2}
н/о н/о +13.8 +13.8 100 +15 +15 1017.8 963.1
06 13.07 ЮЗ 2
{6}
н/о н/о +15.3 +15.3 100 +15 +15 1017.8 963.4 +13.6
07 13.07 З 1
{4}
н/о н/о +16.3 +15.6 96 +17 +17 1018.0 963.8
08 13.07 З 2
{4}
н/о н/о +17.3 +13.3 77 +18 +18 1017.9 963.9
09 13.07 З 1
{5}
н/о н/о +18.7 +10.9 60 +20 +20 1017.7 963.9
10 13.07 З 2
{5}
н/о н/о +19.3 +10.8 58 +21 +21 комфорт 1017.8 964.1
11 13.07 З 2
{6}
н/о н/о +19.7 +10.6 56 +22 +22 комфорт 1017.6 964.0
12 13.07 СЗ 2
{6}
н/о н/о +20.8 +9.4 48 +23 +23 комфорт 1017.2 963.9
13 13.07 СЗ 2
{5}
н/о н/о +20.6 +10.2 51 +23 +23 комфорт 1016.9 963.5
14 13.07 З 1
{6}
н/о н/о +20.8 +9.9 50 +24 +24 комфорт 1016.6 963.3
15 13.07 СЗ 1
{6}
н/о н/о +21.0 +10.8 52 +24 +24 комфорт 1016.6 963.3
16 13.07 Ю 1
{3}
н/о н/о +21.5 +10.6 50 +23 +23 комфорт 1016.1 962.9
17 13.07 СВ 2
{4}
н/о н/о +21.2 +11.4 54 +23 +23 комфорт 1016.2 963.0
18 13.07 З 1
{6}
н/о н/о +19.4 +14.4 73 +23 +23 комфорт 1016.6 963.0 +21.5
19 13.07 В 1
{3}
н/о н/о +19.0 +12.8 67 +22 +22 комфорт 1017.0 963.3
20 13.07 ЮЗ 1
{2}
н/о н/о +16.4 +15.5 94 +18 +18 1018.0 963.8
21 13.07 З 1
{3}
н/о н/о +15.5 +15.5 100 +17 +17 1018.4 964.0
22 13.07 ЮЗ 1
{2}
н/о н/о +14.2 +14.2 100 +15 +15 1018.7 964.0
23 13.07 ЮЗ 1
{2}
н/о н/о +13.5 +13.5 100 +14 +14 1018.8 964.0
00 14.07 ЮЗ 1
{3}
н/о н/о +13.3 +13.3 100 +13 +13 1018.4 963.6
01 14.07 З 1
{1}
н/о н/о +12.7 +12.7 100 +13 +13 1018.1 963.2
02 14.07 З 1
{2}
н/о н/о +12.2 +12.2 100 +12 +12 1017.8 962.8
03 14.07 штиль 0
{2}
н/о н/о +11.6 +11.6 100 +11 +11 1017.5 962.4
04 14.07 З 1
{2}
н/о н/о +11.1 +11.1 100 +11 +11 1017.4 962.2
05 14.07 З 1
{2}
н/о н/о +11.4 +11.4 100 +11 +11 1017.3 962.2
06 14.07 ЮЗ 1
{2}
н/о н/о +13.4 +13.2 99 +14 +14 1016.7 962.0 +10.7
07 14.07 В 1
{2}
н/о н/о +16.4 +14.5 89 +17 +17 1015.9 961.8
08 14.07 СВ 3
{5}
н/о н/о +18.3 +13.0 71 +19 +19 1015.6 961.9
09 14.07 СВ 2
{6}
н/о н/о +19.3 +13.1 67 +21 +21 комфорт 1015.2 961.7
10 14.07 СВ 4
{6}
н/о н/о +20.4 +12.0 59 +23 +23 комфорт 1014.6 961.3
11 14.07 В 3
{7}
н/о н/о +21.6 +11.2 52 +24 +24 комфорт 1014.0 961.0
12 14.07 СВ 2
{7}
н/о н/о +22.1 +11.3 50 +24 +24 комфорт 1013.4 960.5
13 14.07 СВ 3
{8}
н/о н/о +22.7 +11.0 48 +25 +25 комфорт 1012.7 959.9
14 14.07 В 4
{8}
н/о н/о +23.2 +10.6 45 +25 +25 комфорт 1012.0 959.4
15 14.07 СВ 3
{8}
н/о н/о +23.7 +9.3 40 +25 +25 комфорт 1011.6 959.1
16 14.07 СВ 3
{7}
н/о н/о +22.6 +10.1 45 +24 +24 комфорт 1011.5 958.8
17 14.07 СВ 4
{10}
н/о н/о +21.3 +12.4 57 +24 +24 комфорт 1012.2 959.2
18 14.07 СВ 4
{11}
н/о н/о +20.0 +11.1 57 +22 +22 комфорт 1012.9 959.6 +23.7
19 14.07 СВ 3
{8}
н/о н/о +18.9 +11.7 63 +20 +20 1013.5 960.0
20 14.07 СВ 3
{7}
н/о н/о +18.2 +12.2 68 +19 +19 1014.2 960.5
21 14.07 СВ 2
{8}
н/о н/о +17.6 +12.8 73 +18 +18 1014.7 960.9
22 14.07 СВ 2
{7}
н/о н/о +17.1 +13.0 77 +17 +17 1015.0 961.1
23 14.07 СВ 2
{6}
н/о н/о +16.5 +13.3 81 +17 +17 1015.0 961.0
00 15.07 СВ 2
{8}
н/о н/о +16.1 +13.3 83 +16 +16 1014.7 960.6
01 15.07 СВ 3
{5}
н/о н/о +15.8 +13.6 87 +15 +15 1014.4 960.3
02 15.07 СВ 3
{7}
н/о н/о +15.5 +13.3 87 +15 +15 1014.5 960.3
03 15.07 СВ 2
{7}
н/о н/о +14.9 +12.9 88 +15 +15 1014.2 959.9
04 15.07 СВ 3
{5}
н/о н/о +14.7 +12.8 88 +14 +14 1014.4 960.1
05 15.07 СВ 2
{6}
н/о н/о +14.6 +13.1 91 +14 +14 1014.5 960.1
06 15.07 СВ 2
{7}
н/о н/о +15.0 +13.4 90 +15 +15 1014.8 960.5 +14.6
07 15.07 С 2
{5}
н/о н/о +15.5 +13.5 88 +15 +15 1014.9 960.7
08 15.07 СВ 2
{6}
н/о н/о +16.7 +13.7 82 +17 +17 1014.9 960.9
09 15.07 СВ 3
{6}
н/о н/о +17.6 +13.4 76 +18 +18 1014.8 961.0
10 15.07 С 2
{5}
н/о н/о +19.0 +13.5 70 +21 +21 комфорт 1014.5 961.0
11 15.07 СВ 3
{5}
н/о н/о +19.8 +12.8 64 +22 +22 комфорт 1014.4 961.0
12 15.07 СВ 3
{6}
н/о н/о +21.4 +12.7 58 +24 +24 комфорт 1014.0 960.9
13 15.07 СВ 3
{6}
н/о н/о +22.2 +12.2 53 +25 +25 комфорт 1013.6 960.7
14 15.07 СВ 3
{7}
н/о н/о +22.5 +11.8 51 +25 +25 комфорт 1013.5 960.7
15 15.07 СВ 3
{7}
н/о н/о +23.2 +11.2 47 +25 +25 комфорт 1013.3 960.6
16 15.07 СВ 2
{8}
н/о н/о +23.4 +10.6 44 +25 +25 комфорт 1013.2 960.5
17 15.07 СВ 3
{7}
н/о н/о +23.1 +10.8 46 +25 +25 комфорт 1013.4 960.7
18 15.07 СВ 2
{8}
н/о н/о +22.5 +11.6 50 +25 +25 комфорт 1014.0 961.1 +23.6
19 15.07 С 2
{6}
н/о н/о +21.4 +10.8 51 +23 +23 комфорт 1014.7 961.6
20 15.07 С 2
{5}
н/о н/о +20.0 +12.6 62 +23 +23 комфорт 1015.6 962.2
21 15.07 ЮЗ 1
{6}
н/о н/о +17.2 +14.5 84 +19 +19 1016.7 962.7
22 15.07 ЮЗ 1
{2}
н/о н/о +15.3 +14.6 96 +16 +16 1017.5 963.1
23 15.07 Ю 1
{2}
н/о н/о +14.5 +14.5 100 +15 +15 1017.9 963.3
00 16.07 ЮЗ 1
{6}
н/о н/о +13.5 +13.5 100 +14 +14 1018.0 963.2
01 16.07 З 1
{2}
н/о н/о +12.6 +12.6 100 +13 +13 1018.5 963.5
02 16.07 ЮЗ 1
{2}
н/о н/о +12.4 +12.4 100 +13 +13 1018.6 963.6
03 16.07 ЮЗ 1
{2}
н/о н/о +11.6 +11.6 100 +12 +12 1018.8 963.6
04 16.07 ЮЗ 1
{1}
н/о н/о +11.2 +11.2 100 +12 +12 1018.8 963.5
05 16.07 ЮЗ 1
{2}
н/о н/о +12.0 +12.0 100 +13 +13 1018.8 963.7
06 16.07 ЮЗ 1
{2}
н/о н/о +14.4 +14.3 99 +15 +15 1018.3 963.7 +11.1
07 16.07 В 1
{3}
н/о н/о +16.8 +13.7 82 +18 +18 1017.9 963.8
08 16.07 Ю 1
{2}
н/о н/о +17.9 +13.7 76 +19 +19 1017.5 963.6
09 16.07 З 2
{3}
н/о н/о +20.0 +14.1 69 +23 +23 комфорт 1016.9 963.4
10 16.07 СВ 1
{3}
н/о н/о +22.0 +14.5 62 +25 +25 комфорт 1016.4 963.3
11 16.07 СВ 1
{4}
н/о н/о +22.8 +12.2 51 +25 +25 комфорт 1016.1 963.2
12 16.07 З 1
{4}
н/о н/о +23.8 +12.5 49 +26 +26 жарко 1015.4 962.7
13 16.07 СВ 2
{5}
н/о н/о +24.4 +13.4 50 +27 +27 жарко 1014.9 962.3
14 16.07 В 2
{5}
н/о н/о +24.8 +13.1 48 +27 +27 жарко 1014.6 962.1
15 16.07 СВ 1
{5}
н/о н/о +24.7 +12.2 46 +26 +26 жарко 1014.4 961.9
16 16.07 В 2
{5}
н/о н/о +25.1 +12.8 46 +27 +27 жарко 1014.0 961.6
17 16.07 В 2
{4}
н/о н/о +24.9 +12.1 45 +27 +27 жарко 1013.9 961.5
18 16.07 В 1
{5}
н/о н/о +24.3 +11.4 44 +26 +26 жарко 1014.0 961.5 +25.1
19 16.07 З 1
{2}
н/о н/о +19.4 +15.8 80 +23 +23 комфорт 1015.1 961.6
20 16.07 ЮЗ 1
{2}
н/о н/о +16.9 +16.0 94 +18 +18 1015.7 961.7
21 16.07 З 1
{2}
н/о н/о +15.9 +15.9 100 +16 +16 1016.1 961.9
22 16.07 З 1
{2}
н/о н/о +15.1 +15.1 100 +16 +16 1016.4 962.0
23 16.07 З 1
{2}
н/о н/о +15.2 +15.0 99 +16 +16 1016.6 962.2
00 17.07 ЮЗ 2
{2}
н/о н/о +13.7 +13.7 100 +13 +13 1016.7 962.0
01 17.07 З 1
{2}
н/о н/о +13.6 +13.6 100 +14 +14 1016.5 961.8
02 17.07 З 1
{2}
н/о н/о +12.8 +12.8 100 +13 +13 1016.5 961.7
03 17.07 З 1
{2}
н/о н/о +12.7 +12.7 100 +13 +13 1016.3 961.5
04 17.07 З 1
{2}
н/о н/о +12.2 +12.2 100 +12 +12 1016.3 961.4
05 17.07 З 1
{2}
н/о н/о +12.9 +12.9 100 +13 +13 1015.9 961.1
06 17.07 ЮЗ 1
{2}
н/о н/о +15.1 +14.0 93 +16 +16 1015.3 961.0 +12.0
07 17.07 Ю 1
{2}
н/о н/о +18.3 +13.0 71 +20 +20 1014.6 960.9
08 17.07 ЮЗ 1
{2}
н/о н/о +20.5 +13.9 66 +24 +24 комфорт 1013.9 960.7
09 17.07 З 1
{3}
н/о н/о +22.6 +13.9 58 +26 +26 жарко 1013.4 960.6
10 17.07 СЗ 1
{3}
н/о н/о +24.3 +13.2 50 +26 +26 жарко 1012.9 960.4
11 17.07 С 2
{4}
н/о н/о +25.0 +12.3 45 +27 +27 жарко 1012.5 960.2
12 17.07 ЮЗ 2
{5}
н/о н/о +25.7 +12.5 44 +27 +27 жарко 1012.0 959.8
13 17.07 ЮЗ 2
{5}
н/о н/о +26.5 +11.0 38 +27 +27 жарко 1011.5 959.5
14 17.07 З 2
{6}
н/о н/о +27.0 +9.5 33 +27 +27 жарко 1011.1 959.2
15 17.07 З 2
{6}
н/о н/о +27.4 +8.8 31 +27 +27 жарко 1010.6 958.8

 

Местоположение метеостанции Бишофсцелль (Швейцария): широта 47.48 долгота 9.23 высота над уровнем моря 470 м.

В архиве по умолчанию представлена погода в Бишофсцелле за последнюю неделю. Архивные данные за месяц целиком и за предыдущие месяцы, начиная с января 2011 года, Вы можете получить, выбрав интересующий диапазон дат из раскрывающегося списка и нажав кнопку "Ввод!".


*Определитесь, кто Вы:
робот инопланетянин человек

Внимание! Время в таблицах - всемирное. Для получения местного времени необходимо прибавить поправку, которая равна 1 ч.

Смотрите также архив погоды в соседних городах и на ближайших метеорологических станциях:

Погода в Гуттингене (Швейцария) (14 км)
Погода в Санкт-Галлене (Швейцария) (14 км)
Погода в Констанции (Германия) (23 км)
Погода в Эбнат-Каппеле (Швейцария) (24 км)
Погода в Хёрнли (Швейцария) (24 км)
Погода в Хайденхаусе (Швейцария) (25 км)
Погода в Тениконе (Швейцария) (25 км)
Погода в Санкт-Галлен-Альтенрайне (Швейцария) (25 км)
Погода на Зентисе (Швейцария) (27 км)
Погода в Фельдкирхе (Австрия) (38 км)

Пояснения к столбцам:

Ветер - указаны скорость ветра в м/с - средняя за 10 мин, порывы в срок и между сроками (в фигурных скобках) и направление, откуда дует ветер: С - северный, СВ - северо-восточный, В - восточный, ЮВ - юго-восточный, Ю - южный, ЮЗ - юго-западный, З - западный, СЗ - северо-западный.
Видимость - горизонтальная дальность видимости в метрах или километрах. При видимости от 1 до 10 км при отсутствии осадков обычно наблюдается дымка, при ухудшении видимости до 1 км и менее - туман. В сухую погоду видимость может ухудшаться дымом, пылью или мглою.
Явления - указаны атмосферные явления, наблюдавшиеся в срок или в последний час перед сроком; фигурными скобками обозначены явления, наблюдавшиеся между сроками (за 1-3 часа до срока); квадратными скобками обозначены град или гололедные отложения с указанием их диаметра в мм.
Облачность - указаны через наклонную черту общая и нижняя облачность в баллах и высота нижней границы облаков в метрах; квадратными скобками обозначены формы облаков: Ci - перистые, Cs - перисто-слоистые, Cc - перисто-кучевые, Ac - высококучевые, As - высокослоистые, Sc - слоисто-кучевые, Ns - слоисто-дождевые, Cu - кучевые, Cb - кучево-дождевые. Подробнее классификацию облаков см. в Атласе облаков (PDF).
T - Температура воздуха - температура, измеренная на высоте 2 м над землей.
Td - Температура точки росы - температура, при понижении до которой содержащийся в воздухе водяной пар достигнет насыщения.
f - Относительная влажность воздуха - влажноcть воздуха, измеренная на высоте 2 м над землей.
Te - Эффективная температура - температура, которую ощущает одетый по сезону человек в тени. Характеристика душности погоды. При расчете учитывается влияние влажности воздуха и скорости ветра на теплоощущения человека.
Tes - Эффективная температура на солнце - температура, которую ощущает человек, с поправкой на солнечный нагрев. Характеристика знойности погоды. Зависит от высоты солнца над горизонтом, облачности и скорости ветра. Ночью, в пасмурную погоду, а также при ветре 12 м/с и более поправка равна нулю.
P - Атмосферное давление - приведенное к уровню моря атмосферное давление.
Po - Атмосферное давление - измеренное на уровне метеостанции атмосферное давление.
Tmin - Минимальная температура - минимум температуры воздуха на высоте 2 м над землей.
Tmax - Максимальная температура - максимум температуры воздуха на высоте 2 м над землей.
R - Количество осадков - Количество выпавших осадков за период времени, мм. При наведении курсора мыши на число - период времени, за который выпало указанное количество осадков.
R24 - Количество осадков - Количество выпавших осадков за 24 часа, мм.
S - Снежный покров - Высота снежного покрова, см. При наведении курсора мыши на число - состояние снежного покрова и степень покрытия местности в баллах.